TimeEST,TemperatureF,Dew PointF,Humidity,Sea Level PressureIn,VisibilityMPH,Wind Direction,Wind SpeedMPH,Gust SpeedMPH,PrecipitationIn,Events,Conditions,WindDirDegrees,DateUTC
1:53 AM,61.0,55.9,83,30.21,10.0,North,4.6,-,N/A,,Overcast,10,2013-01-06 06:53:00
2:53 AM,61.0,55.9,83,30.20,10.0,Calm,Calm,-,N/A,,Overcast,0,2013-01-06 07:53:00
3:53 AM,61.0,55.9,83,30.18,10.0,NE,5.8,-,N/A,,Overcast,50,2013-01-06 08:53:00
5:53 AM,60.1,55.9,86,30.17,10.0,Calm,Calm,-,N/A,,Overcast,0,2013-01-06 10:53:00
6:53 AM,61.0,57.0,87,30.17,10.0,Calm,Calm,-,N/A,,Overcast,0,2013-01-06 11:53:00
7:53 AM,61.0,57.9,90,30.18,10.0,Calm,Calm,-,N/A,,Overcast,0,2013-01-06 12:53:00
8:53 AM,62.1,57.9,86,30.19,10.0,Calm,Calm,-,N/A,,Overcast,0,2013-01-06 13:53:00
9:53 AM,64.0,61.0,90,30.21,7.0,ESE,3.5,-,N/A,,Overcast,120,2013-01-06 14:53:00
10:29 AM,66.2,60.8,83,30.20,8.0,Calm,Calm,-,N/A,,Overcast,0,2013-01-06 15:29:00
10:53 AM,68.0,62.1,81,30.19,9.0,SSE,4.6,-,N/A,,Mostly Cloudy,160,2013-01-06 15:53:00
11:05 AM,68.0,62.6,83,30.19,10.0,South,4.6,-,N/A,,Partly Cloudy,180,2013-01-06 16:05:00
11:22 AM,69.8,62.6,78,30.18,10.0,Variable,3.5,-,N/A,,Clear,0,2013-01-06 16:22:00
11:53 AM,70.0,63.0,78,30.16,10.0,Calm,Calm,-,N/A,,Clear,0,2013-01-06 16:53:00
12:53 PM,75.0,64.0,69,30.13,10.0,Calm,Calm,-,N/A,,Clear,0,2013-01-06 17:53:00
1:53 PM,78.1,63.0,60,30.10,10.0,Calm,Calm,-,N/A,,Partly Cloudy,0,2013-01-06 18:53:00
2:53 PM,78.1,63.0,60,30.09,10.0,ESE,3.5,-,N/A,,Mostly Cloudy,120,2013-01-06 19:53:00
3:53 PM,77.0,63.0,62,30.09,10.0,Calm,Calm,-,0.00,,Mostly Cloudy,0,2013-01-06 20:53:00
4:53 PM,72.0,64.0,76,30.10,10.0,NW,4.6,-,N/A,,Mostly Cloudy,320,2013-01-06 21:53:00
5:53 PM,69.1,66.9,93,30.12,5.0,NW,8.1,-,0.00,Rain,Light Rain,310,2013-01-06 22:53:00
6:53 PM,68.0,66.0,93,30.12,10.0,NW,4.6,-,0.02,,Overcast,320,2013-01-06 23:53:00
7:46 PM,68.0,64.4,88,30.14,10.0,North,6.9,-,N/A,,Overcast,350,2013-01-07 00:46:00
7:53 PM,68.0,64.9,90,30.13,10.0,NNW,4.6,-,N/A,,Overcast,330,2013-01-07 00:53:00
8:53 PM,66.9,63.0,87,30.14,10.0,ENE,10.4,-,N/A,,Overcast,60,2013-01-07 01:53:00
9:17 PM,66.2,62.6,88,30.16,10.0,North,8.1,-,N/A,,Overcast,10,2013-01-07 02:17:00
9:25 PM,64.4,62.6,94,30.17,10.0,North,8.1,-,N/A,,Overcast,360,2013-01-07 02:25:00
9:53 PM,64.0,61.0,90,30.18,10.0,North,10.4,-,N/A,,Overcast,10,2013-01-07 02:53:00
10:53 PM,62.1,59.0,90,30.18,10.0,NNE,9.2,-,0.00,,Scattered Clouds,30,2013-01-07 03:53:00
11:10 PM,60.8,59.0,94,30.19,10.0,North,8.1,-,N/A,,Mostly Cloudy,10,2013-01-07 04:10:00
11:53 PM,61.0,57.9,90,30.18,10.0,NNE,6.9,-,0.00,Rain,Light Rain,30,2013-01-07 04:53:00